• In Deutschland
  • Länderverzeichnis
  • Für 7 Tage
  • Wassertemperatur
  • Satellitenkarten
  • Wetterkarte
  • Widgets
  • user-avatar
    Anmelden

    Stündliche Wetter Kos

    Heute, 12 Dezember, Dienstag

    Zeit Temperatur Niederschläge Wind Luftdruck Luftfeuchtigkeit
    00:00 +13°C° 0 mm 3 m/S 770 mmHg 89%
    01:00 +14°C° 0 mm 2 m/S 770 mmHg 89%
    02:00 +14°C° 0 mm 2 m/S 770 mmHg 89%
    03:00 +14°C° 0 mm 2 m/S 770 mmHg 89%
    04:00 +14°C° 0 mm 2 m/S 770 mmHg 89%
    05:00 +13°C° 0 mm 2 m/S 770 mmHg 89%
    06:00 +13°C° 0 mm 2 m/S 770 mmHg 88%
    07:00 +13°C° 0 mm 2 m/S 770 mmHg 88%
    08:00 +13°C° 0 mm 2 m/S 770 mmHg 87%
    09:00 +15°C° 0 mm 1 m/S 770 mmHg 81%
    10:00 +18°C° 0 mm 1 m/S 770 mmHg 75%
    11:00 +20°C° 0 mm 1 m/S 770 mmHg 69%
    12:00 +20°C° 0 mm 1 m/S 770 mmHg 68%
    13:00 +20°C° 0 mm 1 m/S 769 mmHg 66%
    14:00 +20°C° 0 mm 1 m/S 769 mmHg 65%
    15:00 +19°C° 0 mm 1 m/S 769 mmHg 71%
    16:00 +18°C° 0 mm 1 m/S 769 mmHg 77%
    17:00 +16°C° 0 mm 2 m/S 769 mmHg 83%
    18:00 +15°C° 0 mm 2 m/S 769 mmHg 86%
    19:00 +15°C° 0 mm 2 m/S 769 mmHg 88%
    20:00 +14°C° 0 mm 2 m/S 769 mmHg 90%
    21:00 +14°C° 0 mm 2 m/S 769 mmHg 90%
    22:00 +14°C° 0 mm 2 m/S 769 mmHg 90%
    23:00 +12°C° 0 mm 3 m/S 769 mmHg 90%

    Morgen, 13 Dezember, Mittwoch

    Zeit Temperatur Niederschläge Wind Luftdruck Luftfeuchtigkeit
    00:00 +12°C° 0 mm 3 m/S 769 mmHg 90%
    01:00 +12°C° 0 mm 3 m/S 769 mmHg 90%
    02:00 +12°C° 0 mm 3 m/S 769 mmHg 89%
    03:00 +11°C° 0 mm 3 m/S 769 mmHg 89%
    04:00 +11°C° 0 mm 3 m/S 768 mmHg 88%
    05:00 +11°C° 0 mm 4 m/S 768 mmHg 87%
    06:00 +11°C° 0 mm 4 m/S 768 mmHg 86%
    07:00 +11°C° 0 mm 4 m/S 768 mmHg 84%
    08:00 +11°C° 0 mm 4 m/S 769 mmHg 82%
    09:00 +13°C° 0 mm 4 m/S 769 mmHg 74%
    10:00 +15°C° 0 mm 4 m/S 769 mmHg 66%
    11:00 +18°C° 0 mm 4 m/S 769 mmHg 58%
    12:00 +19°C° 0 mm 4 m/S 768 mmHg 55%
    13:00 +19°C° 0 mm 4 m/S 768 mmHg 53%
    14:00 +20°C° 0 mm 4 m/S 767 mmHg 50%
    15:00 +18°C° 0 mm 4 m/S 767 mmHg 57%
    16:00 +17°C° 0 mm 4 m/S 767 mmHg 64%
    17:00 +14°C° 0 mm 4 m/S 767 mmHg 72%
    18:00 +14°C° 0 mm 3 m/S 767 mmHg 72%
    19:00 +13°C° 0 mm 3 m/S 767 mmHg 73%
    20:00 +13°C° 0 mm 3 m/S 767 mmHg 73%
    21:00 +12°C° 0 mm 3 m/S 767 mmHg 73%
    22:00 +12°C° 0 mm 4 m/S 767 mmHg 73%
    23:00 +12°C° 0 mm 4 m/S 767 mmHg 73%

    übermorgen, 14 Dezember, Donnerstag

    Zeit Temperatur Niederschläge Wind Luftdruck Luftfeuchtigkeit
    00:00 +12°C° 0 mm 4 m/S 766 mmHg 74%
    01:00 +11°C° 0 mm 3 m/S 766 mmHg 74%
    02:00 +11°C° 0 mm 3 m/S 765 mmHg 75%
    03:00 +11°C° 0 mm 3 m/S 765 mmHg 75%
    04:00 +11°C° 0 mm 4 m/S 765 mmHg 75%
    05:00 +11°C° 0 mm 4 m/S 765 mmHg 75%
    06:00 +11°C° 0 mm 4 m/S 765 mmHg 77%
    07:00 +11°C° 0 mm 4 m/S 765 mmHg 78%
    08:00 +11°C° 0 mm 4 m/S 765 mmHg 80%
    09:00 +13°C° 0 mm 4 m/S 765 mmHg 77%
    10:00 +15°C° 0 mm 4 m/S 765 mmHg 74%
    11:00 +18°C° 0 mm 4 m/S 765 mmHg 71%
    12:00 +18°C° 0 mm 4 m/S 765 mmHg 69%
    13:00 +19°C° 0 mm 4 m/S 764 mmHg 67%
    14:00 +19°C° 0 mm 4 m/S 764 mmHg 65%
    15:00 +18°C° 0 mm 3 m/S 764 mmHg 72%
    16:00 +17°C° 0 mm 3 m/S 764 mmHg 79%
    17:00 +14°C° 0 mm 3 m/S 763 mmHg 86%
    18:00 +14°C° 0 mm 3 m/S 764 mmHg 88%
    19:00 +13°C° 0 mm 3 m/S 764 mmHg 90%
    20:00 +14°C° 0 mm 2 m/S 764 mmHg 92%
    21:00 +12°C° 0 mm 3 m/S 764 mmHg 93%
    22:00 +12°C° 0 mm 3 m/S 764 mmHg 93%
    23:00 +12°C° 0 mm 3 m/S 764 mmHg 94%

    15 Dezember, Freitag

    Zeit Temperatur Niederschläge Wind Luftdruck Luftfeuchtigkeit
    00:00 +12°C° 0 mm 3 m/S 764 mmHg 93%
    01:00 +11°C° 0 mm 3 m/S 764 mmHg 93%
    02:00 +11°C° 0 mm 3 m/S 764 mmHg 92%
    03:00 +11°C° 0 mm 3 m/S 764 mmHg 91%
    04:00 +11°C° 0 mm 3 m/S 764 mmHg 90%
    05:00 +12°C° 0 mm 2 m/S 763 mmHg 89%
    06:00 +12°C° 0 mm 2 m/S 764 mmHg 87%
    07:00 +12°C° 0 mm 2 m/S 764 mmHg 85%
    08:00 +12°C° 0 mm 2 m/S 764 mmHg 84%
    09:00 +14°C° 0 mm 2 m/S 765 mmHg 78%
    10:00 +16°C° 0 mm 2 m/S 765 mmHg 72%
    11:00 +18°C° 0 mm 2 m/S 765 mmHg 65%
    12:00 +18°C° 0 mm 3 m/S 765 mmHg 64%
    13:00 +19°C° 0 mm 3 m/S 764 mmHg 62%
    14:00 +19°C° 0 mm 4 m/S 764 mmHg 61%
    15:00 +17°C° 0 mm 5 m/S 764 mmHg 69%
    16:00 +16°C° 0 mm 5 m/S 764 mmHg 78%
    17:00 +14°C° 0 mm 6 m/S 764 mmHg 87%
    18:00 +14°C° 0 mm 5 m/S 765 mmHg 89%
    19:00 +14°C° 0 mm 5 m/S 765 mmHg 91%
    20:00 +13°C° 0 mm 5 m/S 765 mmHg 93%
    21:00 +13°C° 0,1 mm 5 m/S 765 mmHg 92%
    22:00 +14°C° 0,1 mm 5 m/S 766 mmHg 91%
    23:00 +14°C° 0,1 mm 5 m/S 766 mmHg 90%

    16 Dezember, Samstag

    Zeit Temperatur Niederschläge Wind Luftdruck Luftfeuchtigkeit
    00:00 +14°C° 0,1 mm 5 m/S 766 mmHg 90%
    01:00 +14°C° 0,1 mm 5 m/S 766 mmHg 90%
    02:00 +14°C° 0,1 mm 6 m/S 766 mmHg 90%
    03:00 +13°C° 0,1 mm 5 m/S 766 mmHg 90%
    04:00 +13°C° 0,1 mm 5 m/S 766 mmHg 90%
    05:00 +12°C° 0,1 mm 5 m/S 766 mmHg 91%
    06:00 +12°C° 0,1 mm 5 m/S 766 mmHg 90%
    07:00 +13°C° 0,1 mm 5 m/S 766 mmHg 89%
    08:00 +13°C° 0,1 mm 5 m/S 767 mmHg 88%
    09:00 +14°C° 0 mm 5 m/S 767 mmHg 81%
    10:00 +16°C° 0 mm 5 m/S 767 mmHg 75%
    11:00 +17°C° 0 mm 6 m/S 767 mmHg 68%
    12:00 +19°C° 0 mm 6 m/S 766 mmHg 67%
    13:00 +19°C° 0 mm 6 m/S 766 mmHg 65%
    14:00 +18°C° 0 mm 7 m/S 765 mmHg 63%
    15:00 +17°C° 0 mm 6 m/S 765 mmHg 69%
    16:00 +16°C° 0 mm 6 m/S 765 mmHg 75%
    17:00 +15°C° 0 mm 6 m/S 765 mmHg 81%
    18:00 +15°C° 0 mm 6 m/S 766 mmHg 84%
    19:00 +14°C° 0 mm 7 m/S 766 mmHg 87%
    20:00 +14°C° 0 mm 7 m/S 766 mmHg 89%
    21:00 +14°C° 0 mm 7 m/S 766 mmHg 90%
    22:00 +14°C° 0 mm 7 m/S 766 mmHg 91%
    23:00 +14°C° 0 mm 7 m/S 766 mmHg 93%

    17 Dezember, Sonntag

    Zeit Temperatur Niederschläge Wind Luftdruck Luftfeuchtigkeit
    00:00 +14°C° 0 mm 7 m/S 766 mmHg 92%
    01:00 +14°C° 0 mm 7 m/S 766 mmHg 92%
    02:00 +14°C° 0 mm 7 m/S 766 mmHg 92%
    03:00 +13°C° 0,2 mm 8 m/S 766 mmHg 91%
    04:00 +15°C° 0,2 mm 9 m/S 765 mmHg 90%
    05:00 +15°C° 0,2 mm 9 m/S 765 mmHg 89%
    06:00 +15°C° 0,2 mm 9 m/S 765 mmHg 90%
    07:00 +14°C° 0,2 mm 10 m/S 765 mmHg 91%
    08:00 +14°C° 0,2 mm 10 m/S 765 mmHg 92%
    09:00 +14°C° 0,3 mm 10 m/S 765 mmHg 91%
    10:00 +14°C° 0,3 mm 10 m/S 765 mmHg 90%
    11:00 +15°C° 0,3 mm 9 m/S 765 mmHg 89%
    12:00 +16°C° 0,2 mm 10 m/S 765 mmHg 86%
    13:00 +16°C° 0,2 mm 10 m/S 764 mmHg 84%
    14:00 +17°C° 0,2 mm 10 m/S 764 mmHg 81%
    15:00 +16°C° 0,1 mm 9 m/S 764 mmHg 83%
    16:00 +16°C° 0,1 mm 9 m/S 764 mmHg 85%
    17:00 +15°C° 0,1 mm 9 m/S 764 mmHg 87%
    18:00 +15°C° 0 mm 9 m/S 764 mmHg 89%
    19:00 +13°C° 0 mm 9 m/S 764 mmHg 90%
    20:00 +13°C° 0 mm 9 m/S 764 mmHg 92%
    21:00 +12°C° 0,1 mm 9 m/S 764 mmHg 92%
    22:00 +12°C° 0,1 mm 9 m/S 764 mmHg 92%
    23:00 +12°C° 0,1 mm 10 m/S 764 mmHg 92%
    Mehr zeigen